Weather History for MMCU - August, 2013

Change the Weather History Date:

Saturday, August 31, 2013

  Actual Average Record
Temperature  
Mean Temperature 77 °F -  
Max Temperature 89 °F 84 °F 95 °F (2005)
Min Temperature 65 °F 57 °F 53 °F (2005)
Cooling Degree Days 12    
Growing Degree Days 27 (Base 50)    
Moisture  
Dew Point 59 °F    
Average Humidity 54    
Maximum Humidity 94    
Minimum Humidity 22    
Precipitation  
Precipitation 0.00 in - - ()
Sea Level Pressure  
Sea Level Pressure 29.92 in    
Wind  
Wind Speed 5 mph ()    
Max Wind Speed 12 mph    
Max Gust Speed -    
Visibility 8.5 miles    
Events      
Averages and records for this station are not official NWS values.
T = Trace of Precipitation, MM = Missing Value Source: Averaged Metar Reports

Daily Weather History Graph

Daily Weather History Graph

Search for Another Location

Airport or City:

Trip Planner

Search our weather history database for the weather conditions in past years. The results will help you decide how hot, cold, wet, or windy it might be!

Date:

Astronomy

Aug. 31, 2013 Rise Set
Actual Time 6:41 AM MDT 7:26 PM MDT
Civil Twilight 6:17 AM MDT 7:50 PM MDT
Nautical Twilight 5:49 AM MDT 8:18 PM MDT
Astronomical Twilight 5:20 AM MDT 8:47 PM MDT
Moon 2:26 AM MDT (8/31) 4:14 PM MDT (8/31)
Length of Visible Light 13h 32m
Length of Day
12h 44m
Waning Crescent, 20% of the Moon is Illuminated
Aug 31
Waning Crescent
Sep 5
New
Sep 12
First Quarter
Sep 19
Full
Sep 26
Last Quarter

Hourly Weather History & Observations

Time (MDT) Temp. Heat Index Dew Point Humidity Pressure Visibility Wind Dir Wind Speed Gust Speed Precip Events Conditions
4:40 AM 62.6 °F - 59.0 °F 88% 30.13 in 10.0 mi SSE 9.2 mph - N/A   Partly Cloudy
5:45 AM 67 °F - 62 °F 77% 29.76 in 1 mi West 2.2 mph - -   Clear
5:45 AM 62.6 °F - 59.0 °F 88% 29.86 in 10.0 mi South 9.2 mph - N/A   Partly Cloudy
6:40 AM 62.6 °F - 60.8 °F 94% 30.15 in 10.0 mi South 8.1 mph - N/A   Partly Cloudy
7:40 AM 64.4 °F - 62.6 °F 94% 30.17 in 10.0 mi South 5.8 mph - N/A   Scattered Clouds
8:40 AM 71.6 °F - 64.4 °F 78% 29.89 in 10.0 mi SSE 5.8 mph - N/A   Partly Cloudy
8:45 AM 77 °F - 64 °F 55% 29.82 in 6 mi Calm Calm - -   Scattered Clouds
9:42 AM 77.0 °F - 60.8 °F 57% 30.17 in 10.0 mi Calm Calm - N/A   Clear
10:40 AM 80.6 °F 81.8 °F 62.6 °F 54% 30.16 in 10.0 mi NNE 5.8 mph - N/A   Clear
11:40 AM 84 °F - 64 °F 42% 29.77 in 6 mi ENE 6.7 mph - -   Scattered Clouds
11:40 AM 82.4 °F 82.9 °F 60.8 °F 48% 29.83 in 10.0 mi NNW 11.5 mph - N/A   Partly Cloudy
12:40 PM 84.2 °F 83.8 °F 59.0 °F 42% 30.13 in 10.0 mi NNE 6.9 mph - N/A   Scattered Clouds
1:40 PM 84.2 °F 83.5 °F 57.2 °F 40% 30.12 in 10.0 mi North 6.9 mph - N/A   Scattered Clouds
2:40 PM 87.8 °F 86.1 °F 55.4 °F 33% 29.75 in 10.0 mi NE 5.8 mph - N/A   Scattered Clouds
2:51 PM 89 °F - 56 °F 23% 29.67 in 6 mi ENE 4.5 mph - -   Scattered Clouds
3:40 PM 86.0 °F 84.2 °F 53.6 °F 33% 30.05 in 10.0 mi North 3.5 mph - N/A   Scattered Clouds
4:40 PM 87.8 °F 85.7 °F 53.6 °F 31% 30.03 in 10.0 mi North 4.6 mph - N/A   Scattered Clouds
5:40 PM 87.8 °F - 51.8 °F 29% 29.71 in 10.0 mi Calm Calm - N/A   Scattered Clouds
5:45 PM 89 °F - 56 °F 22% 29.57 in 6 mi ESE 4.5 mph - -   Scattered Clouds
6:40 PM 84.2 °F 83.5 °F 57.2 °F 40% 30.02 in 10.0 mi ESE 3.5 mph - N/A   Scattered Clouds
7:40 PM 75.2 °F - 60.8 °F 61% 30.04 in 10.0 mi ESE 5.8 mph - N/A   Scattered Clouds
8:40 PM 71.6 °F - 57.2 °F 60% 29.76 in 10.0 mi SSE 9.2 mph - N/A   Scattered Clouds
8:45 PM 77 °F - 64 °F 56% 29.60 in 1 mi Calm Calm - -   Scattered Clouds